Regional Weather Roundup
Issued by NWS Wakefield, VA

Home | Current Version | Previous Version | Graphics & Text | Print | Product List | Glossary On
Versions: 1 2 3 4 5 6 7 8 9 10 11 12 13 14 15 16 17 18 19 20 21 22 23 24 25 26 27
000
ASUS41 KAKQ 170715
RWRAKQ

REGIONAL WEATHER ROUNDUP
NATIONAL WEATHER SERVICE WAKEFIELD VA
200 AM EST WED JAN 17 2018

Note: "fair" indicates few or no clouds below 12,000 feet with no
significant weather and/or obstructions to visibility. * = Denotes
station may not report precipitation (e.g., rain,snow,etc.),
thunder or fog.

VAZ042-051-052>054-056-170800-
NORTHERN VIRGINIA

CITY           SKY/WX    TMP DP  RH WIND       PRES   REMARKS
WASH NATIONAL  CLOUDY    34  29  82 NW12      30.33F
DULLES         CLOUDY    31  27  85 N10       30.33R WCI  22
FORT BELVOIR   CLOUDY    33  28  79 NW8       30.32S
QUANTICO       NOT AVBL
FREDERICKSBRG* FAIR      33  31  93 N8        30.31S
STAFFORD*      CLOUDY    33  31  93 N7        30.36S
WARRENTON      LGT RAIN  33  26  76 N7        30.32S
CULPEPER*      LGT SNOW  33  25  72 N7        30.33S
MANASSAS*      MIX PCPN  32  28  85 N10       30.34R WCI  24
LEESBURG*      CLOUDY    32  30  93 N10       30.34S WCI  24
WINCHESTER     CLOUDY    27  19  74 NW9G20    30.34F
FRONT ROYAL*   CLOUDY    30  23  74 NE6       30.31F
LURAY*         CLOUDY    30  28  93 NE6       30.29S
$$

VAZ048-049-060>072-079>083-170800-
CENTRAL AND SOUTH CENTRAL VIRGINIA

CITY           SKY/WX    TMP DP  RH WIND       PRES   REMARKS
RICHMOND       CLOUDY    34  28  79 N3        30.29S
CHESTERFIELD*  NOT AVBL
PETERSBURG*    CLOUDY    30  27  86 CALM      30.29F
HANOVER        CLOUDY    33  27  78 CALM      30.30F
TAPPAHANNOCK*  FAIR      33  31  94 CALM      30.31R
QUINTON*       PTSUNNY   32  27  83 CALM      30.29S
CHARLOTTSVILLE CLOUDY    35  24  64 NE7       30.27F
GORDONSVILLE*  CLOUDY    32  29  89 NE5       30.29R
ORANGE*        CLOUDY    32  28  86 CALM      30.29F
LOUISA*        CLOUDY    33  25  73 N5        30.33R
BUMPASS*       CLOUDY    34  27  74 CALM      30.29S
FARMVILLE*     CLOUDY    35  23  61 N5        30.26S
CREWE*         CLOUDY    31  27  83 CALM      30.26S
FORT PICKETT*  CLOUDY    34  21  58 MISG      30.27S
CHASE CITY*    CLOUDY    33  25  72 CALM      30.26F
CLARKSVILLE*   CLOUDY    34  27  75 CALM      30.26S
SOUTH HILL*    CLOUDY    31  29  92 CALM      30.32F
LAWRENCEVILLE* FAIR      32  26  79 CALM      30.27S
EMPORIA*       FAIR      28  25  86 CALM      30.30S
$$

VAZ088>098-170800-
SOUTHEAST VIRGINIA

CITY           SKY/WX    TMP DP  RH WIND       PRES   REMARKS
NORFOLK        FAIR      32  30  92 SW3       30.28F FOG
VIRGINIA BEACH CLOUDY    36  27  69 CALM      30.28S
NORFOLK NAVAL  MOCLDY    31  29  92 CALM      30.29F FOG
WEST POINT*    FAIR      31  30  95 CALM      30.31S
SALUDA*        FAIR      29  29  99 CALM      30.29S
NEWPORT NEWS   FAIR      30  28  92 CALM      30.29S FOG
LANGLEY AFB    FAIR      30  29  98 CALM      30.29R
FORT EUSTIS    FAIR      31  29  94 CALM      30.27R
WILLIAMSBURG*  FAIR      30  27  86 CALM      30.30S
HR EXEC AP*    FAIR      26  25  96 CALM      30.30S
FRANKLIN*      FAIR      28  27  94 CALM      30.30R
US460-WAKEFLD  FAIR      29  28  96 CALM      30.29F
$$

VAZ020-022-025-037-045-170800-
WEST CENTRAL AND SOUTHWEST VIRGINIA

CITY           SKY/WX    TMP DP  RH WIND       PRES   REMARKS
STAUNTON*      CLOUDY    29  25  84 N9        30.29R
WAYNESBORO*    CLOUDY    30  25  81 N6        30.25S
HOT SPRINGS VA HVY SNOW  19  19  98 W10       30.14F VSB<1/4 WCI   8
LYNCHBURG      CLOUDY    34  20  56 CALM      30.24F
DANVILLE       CLOUDY    33  26  75 CALM      30.26F
SOUTH BOSTON*  CLOUDY    32  24  71 CALM      30.26F
MARTINSVILLE   CLOUDY    34  24  66 N6        30.28S
ROANOKE        CLOUDY    31  20  63 NW14      30.29S WCI  21
BLACKSBURG     CLOUDY    25  18  76 W7        30.28S
DUBLIN*        CLOUDY    24  19  81 NW10G16   30.28S WCI  13
MARION*        LGT SNOW  21  14  75 W7        30.28S
HILLSVILLE*    CLOUDY    24  20  85 NW8       30.20S
RICHLANDS*     CLOUDY    12   8  82 N8        30.29F
WISE*          FLURRIES  12  10  92 N3        30.30F
ABINGDON*      LGT SNOW  19  14  81 NW3       30.31S
$$

MDZ021>025-VAZ099-100-170800-
SOUTHERN MARYLAND AND THE DELMARVA PENINSULA

CITY           SKY/WX    TMP DP  RH WIND       PRES   REMARKS
PATUXENT RIVER NOT AVBL
BAY BRIDGE APT CLOUDY    34  30  86 NW6       30.30S FOG
LEONARDTOWN    CLOUDY    32  32 100 W3        30.31S
DOVER          CLOUDY    37  37 100 NW3       30.27F
GEORGETOWN     CLOUDY    38  34  85 NW3       30.28
EASTON         FAIR      34  31  88 NW3       30.32F
CAMBRIDGE        N/A     34  30  86 CALM      30.28F
SALISBURY      FAIR      36  33  89 NW3       30.27F
OCEAN CITY     CLOUDY    37  37 100 NW5       30.26F FOG
WALLOPS ISLAND FAIR      34  32  92 NW5       30.27F
ACCOMACK*      FAIR      28  28  99 NW3       30.28F
$$

NCZ012>017-030>032-170800-
NORTH CENTRAL AND EASTERN NORTH CAROLINA

CITY           SKY/WX    TMP DP  RH WIND       PRES   REMARKS
ROANOKE RAPIDS FAIR      28  27  93 CALM      30.29S
RALEIGH        CLOUDY    35  25  66 SE3       30.27F
ELIZABETH CITY FAIR      29  29 100 CALM      30.29S
AHOSKIE*       FAIR      28  28  99 CALM      30.30S
EDENTON*       NOT AVBL
CURRITUCK*     FAIR      29  29 100 CALM      30.29S FOG
KILL DEVIL HLS FAIR     N/A N/A N/A CALM      30.27S HAZE
MANTEO         FAIR      30  30 100 CALM      30.29S
CAPE HATTERAS  FAIR      35  33  92 NW5       30.28F
TARBORO*       NOT AVBL
GOLDSBORO      FAIR      31  26  81 CALM      30.27S
WASHINGTON     FAIR      32  30  94 CALM      30.30S
GREENVILLE     FAIR      30  28  93 CALM      30.30S
NEW BERN       FAIR      28  27  96 CALM      30.29F
WILMINGTON     FAIR      32  30  92 CALM      30.29S
$$

VAZ048-170800-
ELSEWHERE

CITY           SKY/WX    TMP DP  RH WIND       PRES   REMARKS
HARRISBURG PA  LGT SNOW  31  30  96 NW9       30.32S FOG
BALTIMORE      CLOUDY    33  30  88 W6        30.31S
ANNAPOLIS      CLOUDY    36  30  79 NW6       30.30S
ANDREWS AFB    MOCLDY    33  29  83 NW12      30.30S WCI  25
PHILADELPHIA   LGT RAIN  36  32  85 N10       30.29F
HENDERSON NC   FAIR      34  21  60 CALM      30.26S
GREENSBORO     CLOUDY    35  26  69 CALM      30.23S
ROCKY MOUNT    FAIR      29  28  96 CALM      30.29
$$

VAZ100-170800-
MARINE

STATION/POSITION TIME  TEMP    WIND        PRES    WAVE   SWELL
                       AIR SEA DIR/SP/G            HT/PER HT/PER
                 (UTC) (F)     (DEG/KT/KT) (MB)    (FT/S) (FT/S)
BRANDYWINE LGT   0642          330/  9/ 10   N/A
CAPE MAY NJ      0648      34  330/  2/  5   N/A
LEWES DE         0648      35  300/  6/  7   N/A
15NM E FENWICK I 0650   43 43  280/  6/  8 1024.8F   5/10   5/10
OCEAN-CITY-INLET 0648      35  330/  4/  5   N/A
WACHAPREAGUE VA  0648      36   CALM  /  2   N/A
THOMAS POINT MD  0700   34 32  310/  9/  9   N/A
GOOSES REEF MD   0700   33 33  310/  8/  8 1026.5    0
COVE POINT MD    0648          330/  6/  7   N/A
SOLOMONS ISLAND  0648      35  310/  5/  7   N/A
BISHOPS HEAD MD  0648      32  300/  3/  3   N/A
PINEY POINT MD   0648          340/  7/  7   N/A
POTOMAC MD       0700   33 34  350/  6/  6 1025.1    0
CAMBRIDGE MD     0648      32                N/A
LEWISETTA VA     0648      33  280/  3/  3   N/A
RAPPAHANNOCK LGT 0648          330/  3/  3   N/A
STINGRAY PT      0700   32 34  340/  2/  2 1028.0    0
YORK RVR RNG VA  0648          360/  2/  3   N/A
YORKTOWN VA      0648      35  290/  5/  6   N/A
DOMINION TERM VA 0648          270/  3/  3   N/A
KIPTOPEKE VA     0648      35   10/  3/  3   N/A
CAPE HENRY VA    0648          270/  3/  4   N/A
WILLOUBY STN VA  0642          270/  4/  4   N/A
S CRANEY ISL VA  0648           CALM  /  2   N/A
CAPE HENRY BUOY  0630      42                N/A     4/11   2/11
1ST LANDING BUOY 0700   34 36  320/  6/  6 1025.4    1/ 8
CAPE CHARLES BUO 0651      38                N/A     5/11   3/11
64NM E OF VA BCH 0650   45 59  300/ 14/ 16 1024.9F   7/11   7/11
DUCK PIER NC     0648      39  270/  6/  7   N/A
44100 DUCK FRF   0615      42                N/A     5/12   3/12
44056 DUCK FRF   0630      38                N/A     5/12   3/12
OREGON INLET NC  0642      42  240/  2/  2   N/A
HATTERAS NC      0648      48   10/  2/  3   N/A
DIAMOND SHLS NC  0700   52 68  330/  8/ 12 1025.3
CAPE LOOKOUT NC  0700          350/  5/  5 1025.3F
$$




USA.gov is the U.S. government's official web portal to all federal, state and local government web resources and services.